Weather History for Detroit, MI

Change the Weather History Date:

Saturday, January 26, 2013

  Actual Average Record
Temperature  
Mean Temperature 30 °F -  
Max Temperature 46 °F 32 °F 59 °F (1950)
Min Temperature 14 °F 19 °F 2 °F (1966)
Degree Days  
Heating Degree Days 35    
Moisture  
Dew Point 15 °F    
Average Humidity 68    
Maximum Humidity 93    
Minimum Humidity 27    
Precipitation  
Precipitation 0.00 in - - ()
Sea Level Pressure  
Sea Level Pressure 30.36 in    
Wind  
Wind Speed 4 mph (WNW)    
Max Wind Speed 10 mph    
Max Gust Speed 16 mph    
Visibility 9 miles    
Events      
Averages and records for this station are not official NWS values.
T = Trace of Precipitation, MM = Missing Value Source: NWS Daily Summary

Daily Weather History Graph

Daily Weather History Graph

Search for Another Location

Airport:

Trip Planner

Search our weather history database for the weather conditions in past years. The results will help you decide how hot, cold, wet, or windy it might be!

Date:

Astronomy

Jan. 26, 2013 Rise Set
Actual Time 7:51 AM EST 5:38 PM EST
Civil Twilight 7:20 AM EST 6:08 PM EST
Nautical Twilight 6:46 AM EST 6:42 PM EST
Astronomical Twilight 6:13 AM EST 7:16 PM EST
Moon 5:33 PM EST (1/26) 7:07 AM EST (1/26)
Length of Visible Light 10h 47m
Length of Day
9h 47m
Full, 100% of the Moon is Illuminated
Jan 26
Full
Jan 26
Full
Feb 3
Last Quarter
Feb 10
New
Feb 17
First Quarter

Hourly Weather History & Observations

Time (EST) Temp. Windchill Dew Point Humidity Pressure Visibility Wind Dir Wind Speed Gust Speed Precip Events Conditions
12:12 AM 19.4 °F - 15.8 °F 86% 30.05 in 10.0 mi Calm Calm - N/A   Overcast
12:53 AM 19.0 °F - 16.0 °F 88% 30.08 in 8.0 mi Calm Calm - N/A   Overcast
1:53 AM 19.9 °F 13.4 °F 17.1 °F 89% 30.81 in 6.0 mi SW 4.6 mph - N/A   Overcast
2:09 AM 19.4 °F 14.3 °F 17.6 °F 93% 30.05 in 6.0 mi WSW 3.5 mph - N/A   Overcast
2:27 AM 19.4 °F 14.3 °F 17.6 °F 93% 30.06 in 7.0 mi WSW 3.5 mph - N/A   Overcast
2:53 AM 21.0 °F 14.6 °F 17.1 °F 85% 30.11 in 7.0 mi West 4.6 mph - N/A   Overcast
3:53 AM 21.0 °F 14.6 °F 18.0 °F 88% 30.12 in 7.0 mi West 4.6 mph - N/A   Overcast
4:53 AM 21.0 °F - 18.0 °F 88% 30.85 in 7.0 mi Calm Calm - N/A   Overcast
5:53 AM 21.0 °F 16.2 °F 17.1 °F 85% 30.87 in 8.0 mi West 3.5 mph - N/A   Overcast
6:41 AM 21.2 °F 12.6 °F 17.6 °F 86% 30.14 in 8.0 mi WNW 6.9 mph - N/A   Overcast
6:53 AM 21.0 °F 12.4 °F 17.1 °F 85% 30.91 in 8.0 mi WNW 6.9 mph - N/A   Overcast
7:23 AM 21.2 °F 13.6 °F 17.6 °F 86% 30.16 in 9.0 mi NW 5.8 mph - N/A   Overcast
7:53 AM 21.0 °F 14.6 °F 17.1 °F 85% 30.94 in 9.0 mi NW 4.6 mph - N/A   Overcast
8:15 AM 21.2 °F 13.6 °F 15.8 °F 80% 30.17 in 8.0 mi NW 5.8 mph - N/A   Overcast
8:53 AM 30.9 °F 27.5 °F 16.0 °F 54% 30.23 in 8.0 mi WNW 3.5 mph - N/A   Mostly Cloudy
9:51 AM 41.0 °F 36.4 °F 15.8 °F 36% 30.22 in 9.0 mi WNW 6.9 mph - N/A   Mostly Cloudy
9:53 AM 41.0 °F 36.4 °F 16.0 °F 36% 30.24 in 9.0 mi WNW 6.9 mph - N/A   Mostly Cloudy
10:53 AM 37.9 °F 32.1 °F 16.0 °F 41% 30.27 in 10.0 mi WNW 8.1 mph - N/A   Overcast
11:44 AM 39.2 °F 35.0 °F 15.8 °F 39% 30.26 in 10.0 mi NW 5.8 mph - N/A   Overcast
11:53 AM 39.9 °F 33.4 °F 15.1 °F 36% 30.29 in 10.0 mi NW 10.4 mph 16.1 mph N/A   Overcast
12:53 PM 46.9 °F - 14.0 °F 27% 30.29 in 10.0 mi WNW 10.4 mph - N/A   Partly Cloudy
1:53 PM 42.1 °F 38.4 °F 14.0 °F 32% 30.30 in 10.0 mi NW 5.8 mph - N/A   Overcast
2:53 PM 39.0 °F 33.4 °F 14.0 °F 36% 30.32 in 10.0 mi NW 8.1 mph - N/A   Mostly Cloudy
3:53 PM - - - N/A% 30.31 in 10.0 mi North 6.9 mph - N/A   Overcast
4:53 PM 26.6 °F 20.0 °F 12.0 °F 54% 30.37 in 10.0 mi WNW 5.8 mph - N/A   Overcast
5:53 PM 26.6 °F 22.6 °F 12.0 °F 54% 30.38 in 10.0 mi NW 3.5 mph - N/A   Overcast
6:53 PM 26.6 °F - 12.0 °F 54% 30.42 in 10.0 mi Calm Calm - N/A   Partly Cloudy
7:53 PM 24.8 °F - 12.0 °F 58% 30.43 in 10.0 mi Calm Calm - N/A   Clear
8:53 PM 17.6 °F - 10.9 °F 75% 30.44 in 10.0 mi Calm Calm - N/A   Clear
9:53 PM 14.0 °F - 10.9 °F 88% 30.45 in 10.0 mi Calm Calm - N/A   Clear
10:53 PM 14.0 °F - 12.0 °F 92% 30.44 in 10.0 mi Calm Calm - N/A   Clear
11:53 PM - - - N/A% 30.44 in 10.0 mi Calm Calm - N/A   Clear